Notices

What's New in latest Release from April 7th, 2021:

- Updated Glossary, including Speed of Maximum Gust, and Total Hourly Precipitation

- Updated national and regional climate services offices contacts and prices information

- Addition of station inventory lists for 1981-2010, 1971-2000, and 1961-1990 Normals.

If you haven't already, please take our survey and provide feedback about our website: https://eccc.sondage-survey.ca/f/LanguageSelection.aspx?s=442ca660-fcf1-47c0-95a9-59707d6fd709

Hourly Data Report for January 22, 2021

SHEARWATER RCS
NOVA SCOTIA
Current Station Operator: ECCC - MSC

44°37'47.000" N
63°30'48.000" W
24.00 m
8205092
71264
AAW

Download Data

Hourly Data (January 2021)
Hourly Data Report for January 22, 2021
TIME
LST
Temp Definition
°C
Dew Point Definition
°C
Rel Hum Definition
%
Precip. Amount Definition
mm

Wind Dir Definition
10's deg

Wind Spd Definition
km/h
Visibility Definition
km
Stn Press Definition
kPa
Hmdx Definition


Wind Chill Definition


Weather Definition


00:00 -6.5 -11.5 68 0.0 4 10   100.41   -11 LegendNANA
01:00 -6.1 -11.5 65 0.0 4 11   100.36   -11 LegendNANA
02:00 -5.9 -10.9 68 0.0 5 13   100.36   -11 LegendNANA
03:00 -5.5 -10.4 68 0.0 5 12   100.32   -10 LegendNANA
04:00 -5.0 -9.6 70 0.0 5 14   100.30   -10 LegendNANA
05:00 -4.4 -8.1 75 0.0 4 14   100.26   -10 LegendNANA
06:00 -4.2 -7.4 78 0.0 5 14   100.20   -9 LegendNANA
07:00 -3.6 -7.0 77 0.0 4 12   100.16   -8 LegendNANA
08:00 -3.2 -6.8 77 0.0 4 15   100.12   -8 LegendNANA
09:00 -2.6 -5.7 79 0.0 5 16   100.09   -8 LegendNANA
10:00 -1.8 -4.7 80 0.0 5 16   100.07   -7 LegendNANA
11:00 -0.6 -3.6 80 0.0 5 22   99.97   -6 LegendNANA
12:00 0.4 -3.8 74 0.0 5 22   99.83     LegendNANA
13:00 -0.2 -3.0 81 0.0 6 21   99.74   -6 LegendNANA
14:00 -0.7 -2.6 87 0.0 4 21   99.72   -6 LegendNANA
15:00 -1.4 -1.9 97 0.9 3 15   99.78   -6 LegendNANA
16:00 -1.6 -2.0 97 1.8 3 15   99.80   -6 LegendNANA
17:00 -1.8 -2.2 97 1.4 36 12   99.92   -6 LegendNANA
18:00 -2.0 -2.5 97 1.0 1 13   100.01   -6 LegendNANA
19:00 -2.5 -3.1 96 0.5 3 11   100.06   -7 LegendNANA
20:00 -2.6 -3.2 95 0.0 2 11   100.10   -7 LegendNANA
21:00 -3.0 -3.8 94 0.0 1 9   100.15   -7 LegendNANA
22:00 -3.6 -4.5 94 0.0 36 10   100.17   -8 LegendNANA
23:00 -5.2 -6.2 93 0.0 33 5   100.17   -7 LegendNANA

Notes on Data Quality.

Legend

  • E = Estimated
  • M = Missing
  • NA = Not Available*
  • [empty] = Indicates an unobserved value
Date modified: